Location: Miles
(41.4492°N, 81.6087°W)
Time: 18:49:15
(UTC+00:00)

Transit 2A - Pass Details

Date: 15 September 2024
Orbit: 590 x 960 km, 66.7° (Epoch: 05 October)

Event Time Altitude Azimuth Distance (km) Brightness Sun altitude
Rises 22:52:16 0° 182° (S) 3,356 9.4 7.1°
Reaches altitude 10° 22:54:48 10° 174° (S) 2,481 8.6 6.7°
Maximum altitude 23:00:03 36° 109° (ESE) 1,395 7.0 5.7°
Drops below altitude 10° 23:05:39 10° 45° (NE) 2,665 8.4 4.6°
Sets 23:08:27 0° 38° (NE) 3,636 9.1 4.1°
